GPS BIIF-10 (PRN 08)

Last updated on Wed Sep 17 2025 00:03:17 GMT+0000 (Coordinated Universal Time)

1 40730U 15033A 25258.50411771 .00000017 00000+0 00000+0 0 9990 2 40730 54.2038 278.4014 0105821 25.3429 335.2164 2.00569994 74487
UTC large
Height (km)
Speed (km/s)
/
Latitude / Longitude
Inclination (degrees)
Orbital Period (minutes)
Azimuth
Elevation
Range (km)
Doppler Factor

Next 0 passes for location: London (51.5072 / 0.1276)

Sorry there are no passes over London.